Maplewood, Minnesota, United States
Lat: 44.95N, Lon: 93W
Wx Zone: MNZ062
Local Info
Past Weather Observations for Saturday, April 19, 2014

NOTE: This archive is for the closest National Weather Service station to Maplewood. Information may differ from the station used for current weather conditions.

Time Weather Temperature Dewpoint Humidity Pressure Winds Precip Visibility
23:58
Overcast
Light Rain
54°F / 12°C 54°F / 12°C 100% 30.04 in
(1017 mb)
Calm 0.00 in
(0.00 mm)
1 3/4SM
23:53
Overcast
Light Rain
54°F / 12°C 52°F / 11°C 94% 30.04 in
(1017 mb)
Calm 0.01 in
(0.25 mm)
1SM
23:48
Overcast
Fog And Mist
54°F / 12°C 52°F / 11°C 94% 30.04 in
(1017 mb)
SSE 4.6 mph
(SSE 7 kph)
0.01 in
(0.25 mm)
1SM
23:38
Overcast
Fog And Mist
54°F / 12°C 54°F / 12°C 100% 30.04 in
(1017 mb)
WNW 3.5 mph
(WNW 6 kph)
0.01 in
(0.25 mm)
1 3/4SM
23:31
Overcast
Light Rain
54°F / 12°C 54°F / 12°C 100% 30.04 in
(1017 mb)
WNW 3.5 mph
(WNW 6 kph)
0.01 in
(0.25 mm)
1 1/4SM
22:57
Overcast
Light Rain
54°F / 12°C 54°F / 12°C 100% 30.04 in
(1017 mb)
Calm 0.01 in
(0.25 mm)
3/4SM
22:53
Overcast
Rain
54°F / 12°C 54°F / 12°C 100% 30.04 in
(1017 mb)
Calm 0.05 in
(1.27 mm)
1 1/4SM
22:43
Overcast
Fog And Mist
52°F / 11°C 52°F / 11°C 100% 30.04 in
(1017 mb)
Calm 0.02 in
(0.51 mm)
1 1/2SM
22:31
Overcast
Light Rain
52°F / 11°C 52°F / 11°C 100% 30.01 in
(1016 mb)
E 3.5 mph
(E 6 kph)
0.02 in
(0.51 mm)
1/2SM
22:23
Overcast
Light Rain
54°F / 12°C 52°F / 11°C 94% 30.01 in
(1016 mb)
Calm 0.02 in
(0.51 mm)
1SM
22:04
Overcast
Light Rain
54°F / 12°C 54°F / 12°C 100% 30.04 in
(1017 mb)
Calm 0.01 in
(0.25 mm)
1 3/4SM
21:53
Overcast
Fog And Mist
54°F / 12°C 52°F / 11°C 94% 30.04 in
(1017 mb)
Calm 0.05 in
(1.27 mm)
3SM
21:37
Overcast
Light Rain
54°F / 12°C 54°F / 12°C 100% 30.04 in
(1017 mb)
WNW 3.5 mph
(WNW 6 kph)
0.05 in
(1.27 mm)
3SM
21:30
Overcast
Light Rain
54°F / 12°C 52°F / 11°C 94% 30.01 in
(1016 mb)
Calm 0.04 in
(1.02 mm)
2 1/2SM
20:53
Overcast
Light Rain
55°F / 13°C 52°F / 11°C 88% 30.01 in
(1016 mb)
Calm 0.03 in
(0.76 mm)
3SM
19:53
Overcast
55°F / 13°C 52°F / 11°C 88% 30.01 in
(1016 mb)
Calm - 9SM
18:53
Overcast
55°F / 13°C 52°F / 11°C 88% 30.01 in
(1016 mb)
SSE 12.7 mph
(SSE 20 kph)
- 8SM
17:53
Overcast
54°F / 12°C 50°F / 10°C 88% 30.01 in
(1016 mb)
SSE 11.5 mph
(SSE 19 kph)
0.02 in
(0.51 mm)
9SM
16:53
Overcast
Light Rain
57°F / 14°C 48°F / 9°C 72% 30.01 in
(1016 mb)
SSE 10.4 mph
(SSE 17 kph)
0.00 in
(0.00 mm)
7SM
15:53
Overcast
63°F / 17°C 45°F / 7°C 52% 30.01 in
(1016 mb)
SSE 11.5 mph
(SSE 19 kph)
- 10SM
14:53
Overcast
64°F / 18°C 43°F / 6°C 46% 30.01 in
(1016 mb)
S 18.4 mph
(S 30 kph)
- 10SM
13:53
Overcast
63°F / 17°C 43°F / 6°C 49% 30.01 in
(1016 mb)
SSE 11.5 mph
(SSE 19 kph)
- 10SM
12:53
Overcast
61°F / 16°C 39°F / 4°C 45% 30.04 in
(1017 mb)
SSE 18.4 mph
(SSE 30 kph)
- 10SM
11:53
Overcast
59°F / 15°C 37°F / 3°C 45% 30.06 in
(1018 mb)
SSE 19.6 mph
(SSE 32 kph)
- 10SM
10:53
Overcast
54°F / 12°C 36°F / 2°C 51% 30.06 in
(1018 mb)
SSE 16.1 mph
(SSE 26 kph)
- 10SM
09:53
Overcast
50°F / 10°C 32°F / 0°C 50% 30.09 in
(1019 mb)
SE 18.4 mph
(SE 30 kph)
- 10SM
08:53
Overcast
46°F / 8°C 30°F / -1°C 53% 30.12 in
(1020 mb)
SSE 21.9 mph
(SSE 35 kph)
- 10SM
07:53
Clear
45°F / 7°C 30°F / -1°C 57% 30.15 in
(1021 mb)
SSE 19.6 mph
(SSE 32 kph)
- 10SM
06:53
Clear
43°F / 6°C 30°F / -1°C 61% 30.15 in
(1021 mb)
SSE 24.2 mph
(SSE 39 kph)
- 10SM
05:53
Clear
43°F / 6°C 30°F / -1°C 61% 30.15 in
(1021 mb)
SE 25.3 mph
(SE 41 kph)
- 10SM
04:53
Clear
45°F / 7°C 30°F / -1°C 57% 30.15 in
(1021 mb)
SSE 18.4 mph
(SSE 30 kph)
- 10SM
03:53
Overcast
45°F / 7°C 28°F / -2°C 53% 30.18 in
(1022 mb)
SE 16.1 mph
(SE 26 kph)
- 10SM
02:53
Partly Cloudy
45°F / 7°C 28°F / -2°C 53% 30.18 in
(1022 mb)
SSE 18.4 mph
(SSE 30 kph)
- 10SM
01:53
Clear
45°F / 7°C 27°F / -3°C 49% 30.18 in
(1022 mb)
SE 16.1 mph
(SE 26 kph)
- 10SM
00:53
Clear
45°F / 7°C 27°F / -3°C 49% 30.18 in
(1022 mb)
SE 13.8 mph
(SE 22 kph)
- 10SM
Time Weather Temperature Dewpoint Humidity Pressure Winds Precip Visibility


Weather for websites

WeatherForYou.com, LLC is not responsible for any damages or problems caused by this service. Current weather conditions are obtained from the closest station including government and personal stations which may have varying degrees of accuracy. Weather forecasts are derived from the NOAA NDFD. Like all things, this site belongs to Jesus Christ... He just trusts me to maintain it. If you have any questions or comments email webmaster@weatherforyou.com

Copyright © 2014, WeatherForYou.com LLC. All rights reserved.